Location: Ristiselk�
(62.0667°N, 25.7500°E)
Time: 05:43:46
(UTC+00:00)

Daily predictions for brighter satellites

Satellite Brightness Start Highest point End
(mag) Time Altitude Azimuth Time Altitude Azimuth Time Altitude Azimuth
Cosmos 1184 Rocket 2.7 00:01:44 10° NNW 00:05:04 86° ENE 00:05:55 47° SSE
Cosmos 1536 2.7 00:01:13 10° NNW 00:05:15 89° WSW 00:06:56 34° SSE
Cosmos 2360 Rocket 3.6 00:01:36 10° WNW 00:05:26 19° WSW 00:05:46 19° WSW
Cosmos 1933 4.4 00:06:07 27° W 00:07:24 34° WNW 00:11:07 10° N
PSLV R/B 4.2 00:03:58 10° N 00:08:11 46° WNW 00:10:02 29° WSW
Cosmos 2322 Rocket 4.2 00:07:21 10° WNW 00:08:51 11° W 00:09:08 11° W
Cosmos 1607 4.0 00:05:26 19° WSW 00:10:08 82° NNW 00:16:29 10° ENE
Lacrosse 5 rocket 2.8 00:11:29 20° SE 00:11:29 20° SE 00:14:21 10° E
Cosmos 405 Rocket 2.5 00:08:49 10° NNW 00:12:32 72° WSW 00:13:43 41° S
NPP 4.0 00:12:41 10° NNE 00:18:04 62° ESE 00:21:27 23° S
Cosmos 2333 Rocket 3.0 00:13:19 10° NW 00:18:12 31° WSW 00:19:27 28° SW
CZ-4C R/B 4.3 00:19:34 25° W 00:19:34 25° W 00:22:24 10° NW
Cosmos 44 3.2 00:17:37 22° W 00:20:19 71° NNW 00:24:45 10° ENE
ARIANE 5 R/B 4.2 00:16:03 10° NNE 00:20:35 29° E 00:25:07 10° SSE
Cosmos 1606 4.3 00:19:46 21° W 00:21:09 26° WNW 00:24:27 10° N
Genesis I 3.3 00:20:23 40° SSW 00:21:31 58° SE 00:25:22 10° ENE
CZ-2D R/B 2.3 00:16:54 10° NNE 00:22:25 71° ESE 00:25:51 24° S
Cosmos 1833 4.2 00:19:31 29° SSW 00:22:37 77° SE 00:28:23 10° NE
Cosmos 1500 3.8 00:19:52 10° NNW 00:23:22 36° W 00:23:52 34° WSW
Meteor 1-10 Rocket 4.2 00:20:32 26° S 00:23:47 81° ESE 00:29:25 10° NNE
CZ-4C R/B 3.9 00:22:28 11° SE 00:25:24 44° ENE 00:28:27 10° N
Cosmos 2237 Rocket 2.3 00:21:56 10° NW 00:27:28 54° WSW 00:32:55 10° SSE
SL-27 R/B 4.2 00:27:13 16° WNW 00:28:55 23° NW 00:31:43 10° NNE
NOSS 7 (D) 3.7 00:33:10 52° W 00:33:42 78° NNW 00:36:27 10° ENE
Meteor 1-27 Rocket 4.0 00:31:02 20° S 00:35:04 69° ESE 00:40:54 10° NNE
Landsat 5 3.9 00:32:02 10° SE 00:35:48 57° ENE 00:39:39 10° NNW
ATLAS 5 CENTAUR R/B 2.0 00:31:52 10° WNW 00:36:59 79° SSW 00:43:00 10° ESE
Cosmos 1707 Rocket 3.6 00:37:49 29° SSW 00:40:05 75° WNW 00:44:34 10° NNE
ERS-2 2.2 00:39:51 31° SSW 00:41:19 55° WSW 00:44:56 10° NNW
Helios 1B rocket 4.1 00:38:19 10° N 00:41:35 23° NW 00:43:47 15° W
Cosmos 1975 3.5 00:39:33 10° N 00:43:33 57° ENE 00:47:32 10° SSE
Cosmos 1464 Rocket 4.5 00:38:27 10° NNW 00:44:10 42° W 00:47:33 23° SW
Meteor 1-11 Rocket 4.2 00:38:37 10° NNW 00:44:12 45° W 00:47:41 22° SSW
Cosmos 1862 Rocket 3.7 00:42:08 22° S 00:44:58 72° ESE 00:49:27 10° NNE
Cosmos 1782 3.9 00:43:59 24° WSW 00:45:35 33° WNW 00:49:13 10° N
Cosmos 1777 Rocket 4.5 00:42:52 21° WSW 00:46:14 54° NW 00:51:25 10° NE
Cosmos 2082 Rocket 3.5 00:43:44 10° W 00:48:59 37° NNW 00:54:17 10° NE
CZ-4B R/B 3.3 00:46:13 10° SE 00:49:25 34° ENE 00:52:35 10° N
Cosmos 2346 Rocket 4.5 00:44:56 18° S 00:49:36 85° ESE 00:55:44 10° NNE
Cosmos 724 4.3 00:45:48 20° WSW 00:50:00 85° NNW 00:55:52 10° ENE
Cosmos 1666 3.2 00:48:45 10° NNW 00:52:15 38° W 00:53:28 29° SW
Cosmos 1818 3.5 00:47:15 10° WNW 00:52:40 65° SW 00:58:04 10° SE
Cosmos 1544 3.8 00:49:09 10° N 00:52:45 53° ENE 00:56:20 10° SSE
CBERS-1 4.2 00:47:58 10° NNE 00:53:07 72° ESE 00:57:03 17° S
Cosmos 1782 Rocket 3.6 00:48:55 10° NNW 00:53:18 83° ENE 00:57:39 10° SSE
CZ-4B R/B 3.3 00:48:57 10° NNE 00:53:49 81° WNW 00:56:52 23° SSW
Cosmos 1743 2.6 00:50:10 10° NNW 00:54:05 80° WSW 00:57:19 14° S
Cosmos 2297 Rocket 3.6 00:51:30 10° S 00:56:24 31° ESE 01:01:18 10° NE
Cosmos 1937 Rocket 3.8 00:54:20 19° SSW 00:58:00 61° ESE 01:03:07 10° NE
Cosmos 494 Rocket 4.0 00:54:34 10° NW 00:59:53 84° WSW 01:05:10 10° SSE
Cosmos 2242 Rocket 4.0 00:57:16 15° S 01:01:05 63° E 01:05:37 10° NNE
Meteor 2-6 Rocket 4.4 00:58:38 22° SW 01:02:04 58° WNW 01:07:27 10° NNE
Cosmos 1833 Rocket 4.2 00:57:14 10° WNW 01:02:23 34° N 01:07:32 10° ENE
SJ 16-02 1.3 01:00:16 24° SW 01:02:53 86° WNW 01:07:19 10° NNE
Cosmos 2219 4.2 00:59:02 12° S 01:03:54 41° ESE 01:09:16 10° NE
Cosmos 2219 Rocket 3.6 01:00:47 10° WNW 01:04:29 18° W 01:05:24 18° WSW
Okean 1-7 3.9 01:05:32 10° S 01:09:46 49° E 01:14:03 10° NNE
Cosmos 1703 Rocket 4.2 01:05:35 10° S 01:09:57 54° E 01:14:21 10° NNE
Cosmos 1898 Rocket 3.5 01:07:44 20° SSW 01:11:25 86° ESE 01:16:41 10° NE
SeaSat 1 2.7 01:06:29 10° SE 01:11:26 75° NE 01:16:24 10° NW
Cosmos 44 Rocket 3.2 01:10:27 19° WSW 01:13:50 86° NNW 01:18:37 10° ENE
Cosmos 1269 Rocket 4.0 01:09:16 10° NW 01:14:37 87° WSW 01:19:57 10° SSE
Timation 2 Rocket 4.4 01:10:13 17° SSW 01:15:43 69° SE 01:22:35 10° NE
SL-08 R/B 3.8 01:13:36 14° SSW 01:17:37 45° W 01:22:24 10° NNW
COSMOS 2487 3.8 01:15:42 16° W 01:17:49 29° NW 01:20:54 10° NNE
Cosmos 990 Rocket 4.0 01:14:28 19° SW 01:18:13 87° NW 01:23:26 10° NE
Cosmos 1634 Rocket 4.0 01:12:26 10° NNW 01:18:31 60° W 01:24:33 10° S
Cosmos 1908 Rocket 3.9 01:15:08 10° NNW 01:19:19 44° W 01:22:33 16° SSW
Cosmos 1733 Rocket 4.3 01:16:36 10° NNW 01:20:08 24° W 01:21:57 18° WSW
Meteor 1-28 Rocket 3.2 01:17:14 11° S 01:20:44 58° WSW 01:24:29 10° NNW
COSMOS 2428 4.2 01:18:03 10° WNW 01:21:18 16° W 01:22:22 15° WSW
Cosmos 1048 Rocket 4.3 01:16:20 10° NW 01:21:26 47° WSW 01:26:34 10° S
H-2A R/B 2.2 01:18:33 13° S 01:22:11 47° W 01:26:11 10° NNW
Cosmos 1356 4.1 01:18:52 10° NNW 01:22:17 57° ENE 01:25:41 10° SSE
Cosmos 2227 Rocket 3.3 01:17:27 10° S 01:22:38 39° ESE 01:27:50 10° NE
Cosmos 1943 3.5 01:17:17 10° NW 01:23:01 72° NE 01:28:45 10° SE
Cosmos 839 Rocket 4.4 01:18:13 14° WSW 01:24:00 78° NNW 01:31:57 10° ENE
Cosmos 2251 Rocket 4.3 01:22:02 10° NW 01:27:22 57° NE 01:32:39 10° SE
ADEOS II 2.1 01:24:38 10° NNE 01:29:57 89° WNW 01:34:57 12° SSW
Cosmos 405 3.0 01:27:39 18° SSW 01:30:11 73° WNW 01:33:46 10° NNE
IRS-1D 3.5 01:26:38 10° NNE 01:31:38 72° WNW 01:36:00 14° SSW
USA 234 3.7 01:25:53 10° SE 01:31:54 38° SSW 01:37:56 10° W
Cosmos 1812 3.7 01:29:44 18° WSW 01:32:02 33° WNW 01:35:35 10° N
EP 3 4.1 01:36:25 19° W 01:37:48 67° N 01:40:22 10° ENE
Tsikada Rocket 4.2 01:32:36 13° SSW 01:38:29 67° WNW 01:44:54 10° NNE
Resurs 1-4 Rocket 2.7 01:34:30 10° NNE 01:39:32 45° WNW 01:43:46 14° SW
AQUA 4.3 01:36:41 10° NNE 01:41:17 48° WNW 01:45:08 14° SW
Cosmos 2285 Rocket 4.3 01:37:09 15° SW 01:42:36 64° NW 01:49:02 10° NE
COBE Rocket 3.8 01:40:41 10° S 01:45:23 64° WSW 01:50:03 10° NNW
IDEFIX/ARIANE 42P 3.3 01:40:19 10° NNE 01:45:26 53° E 01:50:31 10° S
SL-16 R/B 2.6 01:42:01 10° NW 01:47:17 40° WSW 01:52:31 10° S
Cosmos 1300 Rocket 3.5 01:43:38 10° NNW 01:47:59 84° WSW 01:52:18 10° S
SL-16 R/B 4.0 01:45:30 13° WSW 01:48:45 18° W 01:52:52 10° NW
Cosmos 2298 Rocket 4.4 01:44:04 10° SSW 01:49:21 65° ESE 01:54:39 10° NE
Lacrosse 5 rocket 2.0 01:47:06 15° SW 01:49:51 37° S 01:53:36 10° ESE
Meteor 1-12 Rocket 4.4 01:44:24 10° NNW 01:50:27 81° WSW 01:56:23 10° S
Okean 3 4.4 01:48:19 10° S 01:52:20 48° E 01:56:23 10° NNE
IRS-1C 4.2 01:47:09 10° NNE 01:52:30 73° WNW 01:57:49 10° SSW
Sich 1 Rocket 3.8 01:48:20 10° NNW 01:52:36 49° W 01:56:49 10° S
Cosmos 2221 Rocket 4.4 01:48:20 10° S 01:52:38 51° E 01:56:57 10° NNE
Okean 2 Rocket 3.1 01:48:29 10° NNW 01:52:59 69° W 01:57:29 10° S
SAR-Lupe-4 4.0 01:49:39 10° S 01:53:04 41° W 01:56:30 10° NNW
Cosmos 1689 Rocket 2.4 01:50:05 10° SSE 01:53:04 69° ENE 01:56:04 10° NNW
CENTAUR R/B 4.2 01:47:51 10° S 01:53:11 30° ESE 01:59:18 10° ENE
Cosmos 2151 Rocket 3.5 01:49:47 10° NNW 01:54:14 86° WSW 01:58:38 10° SSE
Cosmos 1607 4.3 01:51:36 10° W 01:57:51 68° N 02:04:12 10° E
NPP 4.4 01:53:10 10° NNE 01:58:11 40° NW 02:02:58 11° WSW
CZ-4C R/B 4.0 01:56:07 12° SSW 01:58:21 24° W 02:01:01 10° NW
Genesis I 3.5 01:55:15 10° W 01:59:09 66° NNW 02:03:03 10° ENE
Spot 4 Rocket 4.1 01:54:27 10° NNE 01:59:40 88° ESE 02:04:51 10° SSW
ARIANE 5 R/B 2.6 01:55:01 10° NNE 02:00:14 77° WNW 02:05:28 10° SSW
Cosmos 44 3.6 01:57:35 10° WNW 02:01:54 59° N 02:06:20 10° E
CZ-2D R/B 3.1 01:57:15 10° NNE 02:02:14 37° NW 02:07:10 10° WSW
Cosmos 2279 Rocket 4.3 02:01:14 10° NNW 02:07:09 47° W 02:13:04 10° SSW
Cosmos 1603 3.7 02:04:41 10° NW 02:10:16 66° SW 02:15:50 10° SSE
Cosmos 2237 Rocket 3.7 02:07:06 10° WNW 02:10:25 16° W 02:13:44 10° SW
Landsat 5 4.3 02:08:23 10° SSW 02:11:39 26° W 02:14:58 10° NW
NOSS 7 (D) 4.0 02:08:59 10° WNW 02:11:41 72° N 02:14:31 10° E
Meteor 1-19 Rocket 4.2 02:08:22 10° SSW 02:13:57 90° ESE 02:19:27 10° NNE
Meteor 1-4 Rocket 4.2 02:10:40 10° SSE 02:14:10 38° E 02:17:41 10° NNE
Okean 1 3.5 02:11:31 10° SSW 02:15:24 55° WNW 02:19:21 10° N
ERS-2 4.3 02:15:03 10° W 02:15:43 10° W 02:16:25 10° WNW
CZ-2C R/B 3.7 02:11:39 10° NNE 02:16:00 39° E 02:20:17 10° SSE
Nadezhda 4 Rocket 4.4 02:10:55 10° S 02:17:13 71° E 02:23:32 10° NNE
Cosmos 1975 3.9 02:16:24 10° NNW 02:19:48 27° W 02:23:12 10° SSW
Cosmos 389 Rocket 2.7 02:16:55 10° S 02:20:28 74° ESE 02:23:59 10° NNE
Cosmos 1515 3.7 02:17:11 10° SSW 02:20:58 74° WNW 02:24:50 10° NNE
ATLAS 5 CENTAUR R/B 2.8 02:16:26 10° WNW 02:21:20 36° SW 02:26:57 10° SSE
CZ-4B R/B 2.0 02:18:25 10° S 02:21:43 38° W 02:25:01 10° NNW
Cosmos 1544 4.2 02:24:33 10° NW 02:27:34 24° W 02:30:35 10° SW
SL-24 R/B 4.5 02:23:08 10° SSE 02:27:57 79° ENE 02:32:17 10° NNW
Cosmos 2263 Rocket 4.4 02:29:09 10° SSE 02:33:41 25° ESE 02:38:15 10° NE
Cosmos 2082 Rocket 3.7 02:29:08 10° NW 02:34:24 36° NNE 02:39:40 10° E
CZ-2C R/B 3.0 02:31:13 10° NNE 02:35:16 63° WNW 02:39:16 10° SSW
USA 267 4.2 02:29:18 10° E 02:35:26 40° SSE 02:41:32 10° SW
CZ-2D R/B 3.9 02:31:58 10° NNE 02:36:10 51° WNW 02:40:14 10° SW
ADEOS Rocket 4.2 02:32:11 10° SE 02:39:41 63° ENE 02:46:38 10° NNW
